Theta_e
337 341 349 348 345 346 347 347 347 348 347 345 344 341 343 343 343 345 346 343 343 344 346 347 347 347 346 346 346 346 346 346 346 346 346 346 345 345 345 345 344 342 345
338 341 348 348 345 345 345 345 347 348 347 344 343 341 343 342 341 341 343 344 341 341 343 344 345 345 344 343 343 344 344 344 345 344 344 343 344 343 345 345 344 342 344
338 343 347 347 345 343 345 344 346 348 347 345 343 340 342 342 340 340 342 342 340 339 339 341 342 342 341 341 340 340 339 340 341 343 342 338 341 343 343 344 343 342 341
339 341 345 344 345 343 343 344 346 347 346 345 344 341 340 341 339 339 342 342 339 338 338 338 338 338 339 339 339 338 337 339 339 340 336 336 337 342 341 340 340 339 339
338 342 345 344 346 343 343 343 343 346 346 345 343 341 339 339 339 338 339 341 338 338 337 337 336 336 336 337 336 336 336 337 336 335 334 335 336 338 340 338 337 337 338
340 343 342 345 346 343 343 343 343 344 344 345 344 343 339 338 338 337 337 339 339 336 336 336 336 335 335 336 336 335 336 338 337 333 334 335 335 337 337 337 336 336 336
339 345 345 345 345 345 343 342 343 343 344 343 345 342 340 338 338 336 337 338 338 336 335 335 335 336 336 336 336 336 336 338 333 332 332 332 333 335 335 337 335 334 333
339 345 345 339 341 343 343 344 343 343 343 343 345 342 340 338 337 337 335 338 339 336 335 335 334 336 336 336 336 334 334 333 330 330 330 331 334 332 333 334 333 332 331
340 343 341 344 340 337 340 340 342 342 343 343 344 343 341 339 338 338 336 336 338 335 335 334 334 335 335 335 333 332 331 331 328 329 328 329 333 331 332 332 331 331 330
340 342 341 342 342 340 341 334 336 338 339 340 341 337 334 334 333 333 333 335 336 335 334 335 333 333 333 332 330 329 329 329 328 328 327 328 332 332 331 330 329 329 328
337 340 342 341 342 339 339 335 332 333 334 334 334 330 329 336 334 330 330 333 336 335 333 333 332 331 329 328 327 327 328 328 328 327 327 330 331 330 329 328 327 326 326
334 337 341 340 340 341 338 338 337 337 337 338 340 339 339 336 334 331 328 328 331 332 332 330 328 327 327 329 329 326 328 328 327 326 326 330 329 328 327 326 326 325 325
335 336 339 338 340 341 338 338 337 337 337 336 338 339 338 336 334 331 330 329 330 326 328 326 323 324 324 325 327 327 327 327 327 326 325 328 328 327 325 325 324 324 323
336 336 338 339 338 340 340 339 337 338 337 336 336 338 336 335 334 332 329 329 330 329 328 326 325 324 324 324 325 325 327 326 326 326 324 324 328 325 324 323 322 321 320
335 337 337 339 337 338 338 338 337 336 337 336 336 336 335 334 333 332 330 328 328 328 326 324 324 323 323 323 324 325 325 326 326 326 326 319 325 325 323 322 321 321 320
334 336 338 338 338 336 337 338 337 337 337 337 336 335 335 333 333 331 329 327 326 325 324 323 322 322 323 324 323 323 325 326 326 326 326 323 322 325 324 323 322 321 320
333 335 337 337 336 335 337 337 337 337 336 335 335 335 334 333 332 331 329 327 326 325 323 322 322 322 322 322 322 323 323 325 325 325 325 324 322 321 324 323 322 322 322
332 333 336 337 336 335 335 337 336 337 336 336 334 334 334 333 332 330 329 327 327 325 321 320 320 319 320 320 320 321 321 323 324 323 324 324 323 321 321 324 325 322 322
331 333 334 336 335 334 334 336 336 336 336 335 334 332 333 333 332 330 329 328 327 324 321 320 319 319 319 319 318 318 318 321 321 320 321 322 323 323 322 321 321 320 323
327 331 333 336 336 334 335 335 335 335 335 336 335 331 330 330 330 330 330 329 327 323 321 320 318 319 317 316 313 312 316 318 319 320 320 319 320 321 322 321 319 317 318
314 323 328 331 335 333 333 332 332 331 333 334 335 333 330 328 327 327 328 328 328 323 319 317 315 311 310 312 310 311 313 314 315 316 318 317 318 317 317 316 317 318 318
309 311 319 325 330 335 332 333 333 333 333 334 335 334 330 327 326 325 325 325 326 323 320 316 311 308 307 310 308 308 306 311 312 312 313 315 316 310 310 310 310 312 314
308 309 309 312 321 328 334 332 332 332 332 331 331 332 331 328 326 324 324 323 322 320 317 314 312 310 311 307 307 306 302 302 306 306 310 311 311 310 308 308 309 308 309
310 310 309 309 312 319 329 333 330 328 326 329 331 332 331 330 326 324 323 324 321 321 317 317 315 313 309 306 302 306 304 300 301 300 301 299 304 307 307 309 308 306 306
310 313 315 307 311 316 323 330 332 325 330 330 329 330 330 329 328 326 325 324 323 324 322 319 313 311 311 310 306 302 301 298 298 297 299 304 295 299 302 305 305 304 304
311 314 318 310 307 314 320 325 328 328 327 327 328 328 328 328 327 326 325 325 326 324 320 317 315 312 311 310 309 306 303 300 298 296 296 298 300 304 299 297 300 301 303
Wind_Speed
11 15 10 12 10 9 9 9 9 11 14 14 14 13 13 14 15 14 15 17 17 16 17 16 18 19 19 19 19 20 20 20 19 20 20 20 19 20 19 16 17 17 19
16 15 10 12 11 10 9 8 9 14 14 14 14 13 13 14 16 14 13 15 17 16 16 16 17 18 17 17 17 17 16 14 12 16 17 17 16 18 19 18 19 19 21
15 15 13 11 11 10 9 8 10 12 14 14 14 14 13 14 15 12 13 15 16 16 16 16 16 16 15 16 15 15 14 10 8 10 12 10 14 18 19 18 18 19 19
14 14 14 11 12 10 9 8 8 10 12 13 14 14 12 13 14 12 14 15 14 16 16 16 16 15 15 14 14 14 12 9 6 2 10 11 13 20 20 19 17 17 18
14 13 15 11 12 11 9 8 7 8 10 13 13 13 13 12 13 12 13 13 16 15 15 15 15 15 15 14 14 13 11 8 6 15 10 11 11 17 20 18 18 19 18
14 12 15 13 12 11 10 9 8 9 9 9 13 14 13 11 12 12 10 9 13 14 14 14 14 13 14 14 13 11 10 10 9 12 11 13 12 17 17 17 16 17 17
13 14 14 11 11 11 10 9 8 7 8 6 13 14 13 11 11 11 10 10 11 13 13 13 13 13 13 13 12 9 7 7 9 9 10 11 11 14 14 17 16 17 18
13 14 14 11 10 10 9 8 8 7 8 7 12 14 13 11 10 11 9 9 13 12 12 12 11 12 12 13 11 8 10 10 8 11 9 9 10 12 12 14 14 16 16
13 13 11 12 10 8 8 8 8 7 8 6 8 12 11 10 8 9 8 7 11 11 11 11 11 12 11 13 11 8 8 9 6 8 8 6 9 10 12 13 14 14 15
13 13 10 10 11 10 9 7 7 7 7 6 7 10 9 9 8 7 8 5 9 11 10 11 11 11 11 11 9 6 2 5 8 7 5 6 9 11 13 13 13 14 13
11 12 10 9 10 9 10 8 7 6 6 7 8 9 9 6 7 8 9 7 9 9 10 10 9 9 10 8 5 2 8 3 5 5 5 6 10 11 10 10 10 11 12
15 13 12 9 9 7 7 11 9 8 7 7 8 9 5 4 5 7 8 7 7 9 10 8 6 5 7 5 4 5 1 2 3 5 5 5 8 9 8 9 9 10 11
14 12 13 9 8 7 7 7 5 6 6 6 9 8 5 4 4 5 5 5 6 6 5 6 5 4 1 0 1 0 2 2 2 2 6 6 7 7 7 9 9 9 8
14 14 13 13 9 8 4 5 6 6 6 6 7 8 6 4 5 4 4 5 4 5 4 4 2 2 2 0 1 1 2 2 1 2 6 5 6 6 7 7 7 6 7
15 14 14 14 13 9 7 5 5 6 7 7 7 8 7 6 5 5 5 5 5 4 4 4 4 4 3 3 3 3 3 3 2 2 4 7 6 7 7 8 7 7 7
14 15 15 14 12 11 9 9 6 4 6 7 7 8 9 6 6 6 5 5 5 5 5 4 4 4 4 3 4 4 4 4 5 4 3 6 6 6 8 8 9 9 9
13 13 14 14 13 11 10 8 7 6 6 4 6 9 10 8 8 7 6 6 5 5 6 5 4 4 4 4 5 5 5 6 5 6 5 3 7 7 8 10 11 11 11
13 14 14 11 13 12 11 8 7 6 7 6 5 6 9 9 8 8 6 6 6 5 6 5 6 5 5 5 5 5 5 5 7 7 6 4 3 5 9 10 12 13 14
14 14 14 15 15 13 12 8 8 8 6 6 6 5 7 9 9 8 6 6 6 5 6 5 5 6 5 4 5 4 6 6 6 6 8 8 8 5 3 11 12 11 14
13 13 14 13 15 13 8 8 7 7 7 6 7 7 8 6 8 8 6 7 6 6 6 5 6 4 3 4 4 6 6 6 6 7 7 7 8 8 8 7 8 8 13
11 13 15 15 15 10 9 8 8 8 7 7 6 9 9 8 9 8 6 8 7 6 5 5 2 3 4 3 2 6 7 8 9 8 7 7 9 9 6 6 5 5 7
11 11 13 15 15 14 9 8 7 6 6 7 7 8 10 10 10 9 8 6 7 6 8 6 5 3 3 6 3 3 4 3 7 9 8 8 9 3 6 7 5 7 6
7 8 10 13 14 14 14 7 5 2 3 5 6 7 9 10 10 10 10 8 6 4 5 7 8 9 7 5 8 2 2 6 2 2 4 5 7 6 5 6 10 11 8
3 4 6 9 13 12 13 11 13 9 9 9 8 7 7 10 9 9 9 10 9 7 8 8 8 8 4 6 2 7 1 3 3 4 3 4 6 9 9 7 9 10 9
2 2 3 5 8 11 11 12 9 11 8 8 7 7 8 8 10 10 9 10 10 8 8 8 6 8 8 7 5 2 3 2 3 5 8 7 1 6 7 7 7 7 9
4 3 2 4 6 8 10 11 11 11 10 6 7 6 6 5 6 8 9 9 8 6 7 7 8 8 8 6 5 6 6 4 4 6 8 9 9 6 6 6 8 9 10
Wind_Direction
146 132 140 129 119 111 104 113 104 116 102 90 84 77 80 79 79 78 77 82 73 67 68 72 76 73 70 70 71 76 75 76 79 77 72 68 70 70 64 57 70 72 67
136 138 137 128 123 119 113 96 92 115 105 97 89 82 83 81 72 70 74 85 76 74 71 71 72 76 71 73 72 74 73 71 78 97 92 80 66 69 70 66 66 68 67
136 130 139 126 123 121 118 108 95 103 105 102 96 89 88 87 83 84 88 85 82 81 79 78 71 70 72 72 74 72 66 49 44 80 67 74 72 75 71 63 65 69 69
139 144 136 126 124 126 124 115 104 109 115 110 103 99 92 92 88 76 79 85 82 83 79 79 79 79 76 74 72 67 63 44 33 51 76 73 72 68 67 62 61 70 73
141 148 122 129 130 134 130 120 110 109 109 121 113 104 98 97 93 82 73 83 80 80 82 83 80 77 77 72 70 64 49 28 7 79 60 66 72 68 64 65 67 64 62
144 140 133 133 137 138 135 128 118 114 117 127 123 111 107 102 100 92 84 88 89 81 81 81 81 79 78 74 70 64 34 358 54 59 75 73 71 71 67 68 69 71 69
147 131 144 136 140 141 140 137 132 128 127 124 130 115 114 112 110 101 87 80 95 91 86 84 84 83 79 74 72 64 31 41 86 75 71 76 70 72 73 71 70 74 71
149 141 138 139 138 141 143 139 136 132 126 120 132 126 122 117 115 109 99 90 100 95 90 90 91 85 83 84 82 56 13 359 72 75 64 75 74 73 76 80 79 76 78
149 153 153 157 149 138 142 137 132 125 124 121 134 129 123 119 109 102 102 100 108 103 95 95 95 88 81 80 78 53 15 351 89 88 90 83 73 77 83 85 85 81 80
159 150 171 156 163 159 156 139 136 134 133 124 124 119 112 109 109 104 112 88 99 106 102 97 99 99 84 81 76 59 16 303 76 69 68 77 83 92 91 91 90 88 87
170 175 161 155 177 167 161 152 140 124 110 111 118 124 146 139 149 162 85 90 97 109 105 96 99 101 99 86 77 322 280 76 86 99 87 92 98 98 95 92 98 102 97
182 186 155 174 175 165 170 157 169 159 168 175 158 170 198 157 102 103 106 95 96 105 99 96 109 146 207 151 140 242 229 92 80 106 99 117 110 111 109 112 110 109 112
189 186 162 185 185 174 183 169 173 168 177 175 173 193 172 153 151 158 138 151 144 179 153 164 168 206 72 277 149 261 88 221 122 81 118 139 133 129 126 126 124 123 125
201 198 179 186 185 190 191 186 182 181 182 181 187 182 176 184 177 168 168 168 169 195 145 169 166 135 162 205 221 201 231 260 189 145 133 162 147 141 140 141 143 143 142
203 197 199 192 191 189 187 190 193 205 191 191 182 186 194 192 183 179 171 174 183 178 178 181 171 185 188 199 203 226 228 250 257 232 136 170 195 174 170 170 166 170 172
203 205 197 202 189 199 194 190 196 196 207 200 192 191 203 198 188 187 177 186 184 184 181 188 185 193 202 199 217 234 236 236 234 236 209 168 216 219 193 192 191 190 196
204 202 204 199 206 197 198 196 197 197 209 204 211 199 200 206 197 197 189 190 192 187 182 188 194 210 215 215 229 214 231 237 241 242 241 200 182 220 229 216 210 208 207
209 205 200 193 203 207 204 199 200 199 192 198 200 216 207 209 212 203 202 203 191 185 194 200 199 209 224 224 233 226 235 243 241 249 251 234 224 202 205 232 231 219 219
214 213 207 200 201 206 209 197 202 202 205 197 190 198 205 209 215 217 217 213 190 204 201 210 214 217 219 228 248 253 247 253 241 241 239 248 245 244 220 202 221 236 231
223 218 216 207 206 202 199 204 201 201 205 206 196 192 194 199 205 216 223 219 189 211 216 210 226 224 294 254 242 253 254 249 249 253 247 242 244 253 238 249 208 219 227
233 228 223 216 210 200 196 198 196 202 199 205 206 195 188 194 198 206 221 222 205 215 218 208 180 202 230 253 273 247 245 249 245 246 237 239 234 228 249 244 242 231 225
238 227 235 227 220 196 207 203 206 194 208 211 205 202 193 192 195 200 206 220 222 212 218 201 183 189 224 195 230 252 291 268 223 228 237 233 237 188 221 247 263 251 250
240 233 230 233 230 223 190 195 193 193 180 198 212 204 199 194 194 194 201 206 214 203 207 207 200 207 233 196 214 212 215 238 338 81 250 237 245 228 220 234 230 235 236
275 278 256 246 235 230 216 202 184 207 216 218 213 202 197 194 194 196 203 210 208 208 216 215 213 215 173 211 208 228 250 33 310 327 296 265 242 239 235 237 229 231 229
18 311 259 237 232 220 219 209 203 212 228 226 209 188 190 191 195 199 205 209 213 218 219 216 193 206 208 226 209 148 215 188 199 233 273 267 270 244 236 244 237 238 231
56 36 60 166 204 222 213 215 223 210 226 230 233 170 183 184 194 202 207 216 224 216 217 216 218 213 216 216 214 203 208 190 194 207 238 259 260 262 215 223 233 237 239